SLT606 UOOO-UUDD

Flight info

Callsign SLT606
Flight time 3h 56m
Altitude 34000
Route BI4B BI T791 ARKUK T818 USINA T187 GONIB/K0876F360 T791 NAZOL T187 ROMTA ROMTA3L
Aircraft B739/M-SDE2E3FGHIRWXY/LB1

Departure

Time 2026-04-25 14:54
Airport Alykel International Airport (UOOO)

Arrival

Time 2026-04-25 18:50
Airport Domodedovo International Airport (UUDD)
Time Latitude Longitude Altitude Speed Heading
2026-04-25 14:00 69.32350 87.34242 605 ft 0 kts 303°
2026-04-25 14:46 69.32342 87.34278 622 ft 4 kts 303°
2026-04-25 14:46 69.32329 87.34339 617 ft 2 kts 303°
2026-04-25 14:46 69.32319 87.34396 619 ft 4 kts 261°
2026-04-25 14:46 69.32332 87.34439 608 ft 4 kts 200°
2026-04-25 14:47 69.32353 87.34463 609 ft 1 kts 210°
2026-04-25 14:49 69.32351 87.34460 617 ft 2 kts 210°
2026-04-25 14:50 69.32325 87.34416 617 ft 7 kts 211°
2026-04-25 14:50 69.32269 87.34317 618 ft 11 kts 212°
2026-04-25 14:50 69.32194 87.34184 615 ft 13 kts 212°
2026-04-25 14:50 69.32134 87.34073 618 ft 10 kts 211°
2026-04-25 14:51 69.32066 87.34080 611 ft 10 kts 136°
2026-04-25 14:51 69.32020 87.34275 620 ft 14 kts 123°
2026-04-25 14:51 69.31985 87.34426 605 ft 0 kts 122°
2026-04-25 14:52 69.31984 87.34426 605 ft 0 kts 122°
2026-04-25 14:52 69.31973 87.34480 608 ft 7 kts 121°
2026-04-25 14:52 69.31932 87.34604 616 ft 10 kts 161°
2026-04-25 14:52 69.31885 87.34584 615 ft 11 kts 206°
2026-04-25 14:53 69.31858 87.34537 617 ft 15 kts 212°
2026-04-25 14:53 69.31535 87.33961 614 ft 94 kts 213°
2026-04-25 14:53 69.30788 87.32628 615 ft 157 kts 211°
2026-04-25 14:53 69.29797 87.30876 1049 ft 171 kts 212°
2026-04-25 14:54 69.28753 87.28975 1590 ft 190 kts 211°
2026-04-25 14:54 69.27580 87.26913 2147 ft 202 kts 210°
2026-04-25 14:54 69.26380 87.24774 2793 ft 209 kts 213°
2026-04-25 14:54 69.25149 87.22371 3190 ft 220 kts 215°
2026-04-25 14:55 69.23928 87.19523 3527 ft 240 kts 225°
2026-04-25 14:55 69.22935 87.15603 3987 ft 251 kts 249°
2026-04-25 14:55 69.22883 87.10836 4976 ft 246 kts 287°
2026-04-25 14:55 69.23687 87.06621 5824 ft 247 kts 299°
2026-04-25 14:56 69.24621 87.02525 6495 ft 250 kts 300°
2026-04-25 14:56 69.25551 86.98389 7196 ft 250 kts 298°
2026-04-25 14:56 69.26466 86.94179 7849 ft 253 kts 298°
2026-04-25 14:56 69.27368 86.89907 8495 ft 255 kts 297°
2026-04-25 14:57 69.28264 86.85570 9144 ft 256 kts 297°
2026-04-25 14:57 69.29155 86.81190 9827 ft 257 kts 297°
2026-04-25 14:57 69.30042 86.76789 10396 ft 263 kts 297°
2026-04-25 14:57 69.30971 86.72126 10600 ft 282 kts 297°
2026-04-25 14:58 69.31963 86.67108 10786 ft 302 kts 297°
2026-04-25 14:58 69.33021 86.61742 10939 ft 322 kts 297°
2026-04-25 14:58 69.34141 86.56049 11099 ft 340 kts 297°
2026-04-25 14:58 69.35318 86.50038 11238 ft 357 kts 297°
2026-04-25 14:59 69.36541 86.43770 11539 ft 368 kts 297°
2026-04-25 14:59 69.37809 86.37415 12060 ft 371 kts 298°
2026-04-25 14:59 69.39098 86.31074 12699 ft 371 kts 298°
2026-04-25 14:59 69.40343 86.24647 13265 ft 372 kts 292°
2026-04-25 15:00 69.40911 86.17510 13761 ft 373 kts 272°
2026-04-25 15:00 69.40826 86.10142 14326 ft 375 kts 266°
2026-04-25 15:00 69.40571 86.02746 14822 ft 377 kts 264°
2026-04-25 15:00 69.40269 85.95313 15334 ft 380 kts 264°
2026-04-25 15:01 69.39955 85.87840 15783 ft 383 kts 264°
2026-04-25 15:01 69.39642 85.80288 16152 ft 388 kts 264°
2026-04-25 15:01 69.39336 85.72775 16624 ft 389 kts 264°
2026-04-25 15:01 69.39029 85.65129 17096 ft 391 kts 265°
2026-04-25 15:02 69.38719 85.57346 17532 ft 393 kts 264°
2026-04-25 15:02 69.38410 85.49607 17911 ft 397 kts 265°
2026-04-25 15:02 69.38103 85.41912 18358 ft 398 kts 265°
2026-04-25 15:02 69.37788 85.34091 18785 ft 400 kts 264°
2026-04-25 15:03 69.37468 85.26231 19198 ft 402 kts 264°
2026-04-25 15:03 69.37138 85.18223 19577 ft 405 kts 264°
2026-04-25 15:03 69.36810 85.10369 19959 ft 408 kts 264°
2026-04-25 15:03 69.36473 85.02364 20341 ft 410 kts 264°
2026-04-25 15:04 69.36131 84.94328 20740 ft 412 kts 264°
2026-04-25 15:04 69.35784 84.86244 21100 ft 414 kts 264°
2026-04-25 15:04 69.35431 84.78131 21457 ft 416 kts 264°
2026-04-25 15:04 69.35072 84.69979 21812 ft 418 kts 264°
2026-04-25 15:05 69.34708 84.61781 22168 ft 420 kts 264°
2026-04-25 15:05 69.34338 84.53563 22504 ft 422 kts 264°
2026-04-25 15:05 69.33962 84.45297 22817 ft 424 kts 264°
2026-04-25 15:06 69.33194 84.28662 23467 ft 428 kts 264°
2026-04-25 15:06 69.32801 84.20297 23779 ft 430 kts 264°
2026-04-25 15:06 69.32403 84.11916 24102 ft 431 kts 264°
2026-04-25 15:06 69.31999 84.03501 24393 ft 433 kts 264°
2026-04-25 15:07 69.31589 83.95042 24661 ft 435 kts 264°
2026-04-25 15:07 69.31173 83.86556 24938 ft 437 kts 264°
2026-04-25 15:07 69.30753 83.78041 25227 ft 438 kts 263°
2026-04-25 15:07 69.30327 83.69519 25605 ft 437 kts 263°
2026-04-25 15:08 69.29898 83.61035 26020 ft 435 kts 263°
2026-04-25 15:08 69.29467 83.52598 26446 ft 433 kts 263°
2026-04-25 15:08 69.29033 83.44185 26778 ft 434 kts 263°
2026-04-25 15:08 69.28593 83.35748 27103 ft 434 kts 263°
2026-04-25 15:09 69.28151 83.27333 27502 ft 432 kts 263°
2026-04-25 15:09 69.27708 83.18961 27888 ft 431 kts 263°
2026-04-25 15:09 69.26808 83.02232 28540 ft 431 kts 263°
2026-04-25 15:10 69.26353 82.93895 28912 ft 429 kts 263°
2026-04-25 15:10 69.25894 82.85581 29273 ft 428 kts 263°
2026-04-25 15:10 69.24969 82.69004 29915 ft 427 kts 262°
2026-04-25 15:11 69.24501 82.60737 30252 ft 426 kts 262°
2026-04-25 15:11 69.24031 82.52490 30548 ft 426 kts 262°
2026-04-25 15:11 69.23562 82.44338 30756 ft 428 kts 262°
2026-04-25 15:12 69.22595 82.27750 31248 ft 429 kts 262°
2026-04-25 15:12 69.22105 82.19462 31497 ft 429 kts 262°
2026-04-25 15:12 69.21611 82.11157 31697 ft 431 kts 262°
2026-04-25 15:12 69.21443 82.08347 31763 ft 431 kts 262°
2026-04-25 15:13 69.20606 81.94512 32157 ft 432 kts 261°
2026-04-25 15:13 69.19582 81.77838 32538 ft 434 kts 261°
2026-04-25 15:13 69.19063 81.69481 32757 ft 433 kts 261°
2026-04-25 15:14 69.18540 81.61136 32953 ft 434 kts 261°
2026-04-25 15:14 69.18011 81.52764 33148 ft 435 kts 261°
2026-04-25 15:14 69.17478 81.44398 33334 ft 435 kts 261°
2026-04-25 15:14 69.16941 81.36026 33527 ft 436 kts 260°
2026-04-25 15:15 69.16400 81.27660 33739 ft 435 kts 260°
2026-04-25 15:15 69.15855 81.19310 33918 ft 435 kts 260°
2026-04-25 15:15 69.15303 81.10926 33906 ft 438 kts 260°
2026-04-25 15:16 69.14194 80.94252 33910 ft 437 kts 260°
2026-04-25 15:16 69.12495 80.69207 33909 ft 435 kts 259°
2026-04-25 15:17 69.10766 80.44290 33908 ft 434 kts 259°
2026-04-25 15:18 69.09596 80.27712 33903 ft 434 kts 259°
2026-04-25 15:18 69.07809 80.02856 33900 ft 434 kts 259°
2026-04-25 15:19 69.07000 79.91782 33897 ft 435 kts 258°
2026-04-25 15:19 69.05369 79.69741 33894 ft 435 kts 258°
2026-04-25 15:20 69.04134 79.53175 33891 ft 436 kts 258°
2026-04-25 15:20 69.02886 79.36619 33888 ft 436 kts 258°
2026-04-25 15:21 69.01624 79.20083 33889 ft 436 kts 258°
2026-04-25 15:21 69.00345 79.03553 33884 ft 436 kts 258°
2026-04-25 15:22 68.99017 78.87063 33883 ft 436 kts 257°
2026-04-25 15:22 68.97657 78.70615 33875 ft 436 kts 257°
2026-04-25 15:23 68.96283 78.54170 33867 ft 436 kts 257°
2026-04-25 15:23 68.94899 78.37756 33871 ft 435 kts 257°
2026-04-25 15:24 68.93503 78.21385 33867 ft 435 kts 256°
2026-04-25 15:24 68.92570 78.10559 33874 ft 435 kts 256°
2026-04-25 15:25 68.90906 77.91473 33861 ft 435 kts 256°
2026-04-25 15:25 68.89469 77.75194 33860 ft 434 kts 256°
2026-04-25 15:26 68.88018 77.58953 33862 ft 433 kts 256°
2026-04-25 15:26 68.86552 77.42753 33861 ft 433 kts 255°
2026-04-25 15:27 68.85073 77.26588 33851 ft 433 kts 255°
2026-04-25 15:28 68.82824 77.02377 33851 ft 433 kts 255°
2026-04-25 15:28 68.81305 76.86260 33852 ft 433 kts 255°
2026-04-25 15:29 68.79769 76.70142 33846 ft 434 kts 255°
2026-04-25 15:29 68.78226 76.54123 33845 ft 435 kts 254°
2026-04-25 15:30 68.76654 76.37995 33842 ft 435 kts 254°
2026-04-25 15:30 68.75065 76.21868 33836 ft 436 kts 254°
2026-04-25 15:31 68.73456 76.05722 33825 ft 437 kts 254°
2026-04-25 15:31 68.71829 75.89569 33821 ft 438 kts 253°
2026-04-25 15:32 68.70187 75.73438 33822 ft 438 kts 253°
2026-04-25 15:32 68.68528 75.57326 33828 ft 438 kts 253°
2026-04-25 15:33 68.66012 75.33222 33821 ft 437 kts 253°
2026-04-25 15:33 68.64320 75.17198 33822 ft 437 kts 253°
2026-04-25 15:34 68.62615 75.01229 33811 ft 436 kts 253°
2026-04-25 15:34 68.61185 74.87972 33818 ft 436 kts 252°
2026-04-25 15:35 68.58286 74.61426 33820 ft 436 kts 252°
2026-04-25 15:36 68.55645 74.37607 33818 ft 436 kts 252°
2026-04-25 15:36 68.53875 74.21861 33813 ft 437 kts 252°
2026-04-25 15:37 68.52077 74.06016 33818 ft 437 kts 251°
2026-04-25 15:37 68.50260 73.90157 33812 ft 439 kts 251°
2026-04-25 15:38 68.48427 73.74288 33817 ft 439 kts 251°
2026-04-25 15:38 68.46597 73.58410 33810 ft 440 kts 254°
2026-04-25 15:39 68.45346 73.42062 33762 ft 443 kts 258°
2026-04-25 15:39 68.44238 73.25570 33760 ft 443 kts 258°
2026-04-25 15:40 68.43277 73.11774 33760 ft 443 kts 257°
2026-04-25 15:40 68.41889 72.92687 33769 ft 442 kts 257°
2026-04-25 15:41 68.40668 72.76320 33762 ft 442 kts 257°
2026-04-25 15:41 68.39430 72.59978 33766 ft 442 kts 257°
2026-04-25 15:42 68.38176 72.43639 33760 ft 443 kts 256°
2026-04-25 15:42 68.36909 72.27336 33757 ft 442 kts 256°
2026-04-25 15:43 68.35626 72.11065 33755 ft 441 kts 256°
2026-04-25 15:43 68.34329 71.94829 33753 ft 441 kts 256°
2026-04-25 15:44 68.33015 71.78594 33729 ft 441 kts 256°
2026-04-25 15:44 68.31687 71.62400 33724 ft 440 kts 256°
2026-04-25 15:45 68.30344 71.46238 33720 ft 440 kts 256°
2026-04-25 15:45 68.29220 71.32824 33721 ft 441 kts 255°
2026-04-25 15:46 68.27626 71.14078 33723 ft 441 kts 255°
2026-04-25 15:46 68.26233 70.97960 33717 ft 441 kts 255°
2026-04-25 15:47 68.24817 70.81732 33712 ft 442 kts 255°
2026-04-25 15:47 68.23403 70.65717 33710 ft 443 kts 255°
2026-04-25 15:48 68.21962 70.49602 33712 ft 443 kts 255°
2026-04-25 15:48 68.20507 70.33487 33710 ft 443 kts 254°
2026-04-25 15:49 68.19038 70.17391 33708 ft 443 kts 254°
2026-04-25 15:49 68.17548 70.01299 33703 ft 444 kts 254°
2026-04-25 15:50 68.16042 69.85209 33707 ft 444 kts 254°
2026-04-25 15:50 68.14518 69.69155 33703 ft 444 kts 253°
2026-04-25 15:51 68.13231 69.55706 33705 ft 444 kts 253°
2026-04-25 15:51 68.11426 69.37074 33702 ft 444 kts 253°
2026-04-25 15:52 68.09856 69.21060 33693 ft 444 kts 253°
2026-04-25 15:52 68.08272 69.05081 33692 ft 444 kts 253°
2026-04-25 15:53 68.06671 68.89116 33693 ft 444 kts 253°
2026-04-25 15:53 68.05057 68.73179 33695 ft 444 kts 253°
2026-04-25 15:54 68.03427 68.57266 33688 ft 444 kts 252°
2026-04-25 15:54 68.01782 68.41378 33680 ft 444 kts 252°
2026-04-25 15:55 68.00123 68.25533 33687 ft 443 kts 252°
2026-04-25 15:55 67.98448 68.09700 33684 ft 444 kts 252°
2026-04-25 15:56 67.96760 67.93900 33684 ft 444 kts 252°
2026-04-25 15:56 67.95056 67.78115 33689 ft 444 kts 252°
2026-04-25 15:57 67.93339 67.62344 33685 ft 444 kts 252°
2026-04-25 15:57 67.91601 67.46580 33687 ft 444 kts 251°
2026-04-25 15:58 67.89835 67.30843 33669 ft 445 kts 251°
2026-04-25 15:58 67.88065 67.15201 33671 ft 446 kts 251°
2026-04-25 15:59 67.86270 66.99464 33686 ft 446 kts 251°
2026-04-25 15:59 67.84460 66.83737 33679 ft 446 kts 251°
2026-04-25 16:00 67.83549 66.75884 33681 ft 446 kts 251°
2026-04-25 16:00 67.80792 66.52329 33666 ft 446 kts 250°
2026-04-25 16:01 67.78942 66.36666 33674 ft 446 kts 250°
2026-04-25 16:01 67.77081 66.21049 33670 ft 445 kts 250°
2026-04-25 16:02 67.75209 66.05479 33668 ft 445 kts 250°
2026-04-25 16:02 67.73324 65.89948 33668 ft 445 kts 250°
2026-04-25 16:03 67.71426 65.74449 33681 ft 445 kts 250°
2026-04-25 16:03 67.69514 65.58945 33672 ft 445 kts 250°
2026-04-25 16:04 67.67593 65.43464 33669 ft 445 kts 250°
2026-04-25 16:04 67.65658 65.28014 33677 ft 445 kts 249°
2026-04-25 16:05 67.63707 65.12567 33672 ft 445 kts 249°
2026-04-25 16:06 67.60756 64.89452 33668 ft 445 kts 249°
2026-04-25 16:06 67.58779 64.74088 33683 ft 445 kts 249°
2026-04-25 16:07 67.56795 64.58730 33670 ft 445 kts 249°
2026-04-25 16:07 67.54812 64.43498 33671 ft 445 kts 249°
2026-04-25 16:08 67.52798 64.28179 33671 ft 446 kts 249°
2026-04-25 16:08 67.50769 64.12869 33684 ft 446 kts 248°
2026-04-25 16:09 67.48692 63.97606 33668 ft 445 kts 245°
2026-04-25 16:09 67.45984 63.83133 33668 ft 444 kts 240°
2026-04-25 16:10 67.43116 63.68875 33684 ft 444 kts 240°
2026-04-25 16:10 67.40267 63.54600 33671 ft 445 kts 240°
2026-04-25 16:11 67.37440 63.40320 33682 ft 444 kts 240°
2026-04-25 16:11 67.34606 63.26064 33680 ft 444 kts 240°
2026-04-25 16:12 67.31759 63.11836 33676 ft 445 kts 240°
2026-04-25 16:12 67.28902 62.97652 33672 ft 444 kts 240°
2026-04-25 16:13 67.26515 62.85883 33668 ft 445 kts 240°
2026-04-25 16:13 67.23628 62.71732 33679 ft 445 kts 240°
2026-04-25 16:14 67.20726 62.57605 33670 ft 446 kts 240°
2026-04-25 16:14 67.17812 62.43494 33674 ft 446 kts 240°
2026-04-25 16:15 67.14880 62.29402 33679 ft 447 kts 239°
2026-04-25 16:15 67.11949 62.15313 33683 ft 447 kts 239°
2026-04-25 16:16 67.09014 62.01246 33669 ft 447 kts 239°
2026-04-25 16:16 67.06064 61.87212 33672 ft 447 kts 239°
2026-04-25 16:17 67.03114 61.73276 33677 ft 448 kts 239°
2026-04-25 16:17 67.00133 61.59286 33680 ft 448 kts 239°
2026-04-25 16:18 66.97141 61.45334 33667 ft 448 kts 239°
2026-04-25 16:18 66.94135 61.31407 33680 ft 448 kts 239°
2026-04-25 16:19 66.91111 61.17496 33687 ft 449 kts 239°
2026-04-25 16:19 66.88075 61.03614 33674 ft 449 kts 238°
2026-04-25 16:20 66.83488 60.82816 33670 ft 450 kts 238°
2026-04-25 16:21 66.78880 60.62098 33652 ft 447 kts 238°
2026-04-25 16:21 66.75807 60.48400 33660 ft 448 kts 238°
2026-04-25 16:22 66.72710 60.34702 33669 ft 449 kts 238°
2026-04-25 16:22 66.69600 60.21018 33667 ft 450 kts 238°
2026-04-25 16:23 66.66489 60.07410 33654 ft 451 kts 238°
2026-04-25 16:23 66.63334 59.93702 33649 ft 453 kts 237°
2026-04-25 16:24 66.60158 59.79990 33648 ft 454 kts 237°
2026-04-25 16:24 66.56969 59.66286 33647 ft 454 kts 237°
2026-04-25 16:25 66.54306 59.54923 33650 ft 454 kts 237°
2026-04-25 16:25 66.50543 59.38998 33643 ft 454 kts 237°
2026-04-25 16:26 66.47316 59.25433 33646 ft 453 kts 237°
2026-04-25 16:26 66.44083 59.11910 33649 ft 453 kts 237°
2026-04-25 16:27 66.40844 58.98441 33651 ft 452 kts 237°
2026-04-25 16:27 66.37597 58.85028 33641 ft 451 kts 236°
2026-04-25 16:28 66.34344 58.71676 33633 ft 450 kts 236°
2026-04-25 16:28 66.31088 58.58375 33642 ft 450 kts 236°
2026-04-25 16:29 66.27818 58.45113 33636 ft 450 kts 236°
2026-04-25 16:29 66.24537 58.31886 33640 ft 450 kts 236°
2026-04-25 16:30 66.21244 58.18663 33639 ft 451 kts 236°
2026-04-25 16:30 66.17956 58.05542 33639 ft 452 kts 236°
2026-04-25 16:31 66.14638 57.92307 33639 ft 453 kts 236°
2026-04-25 16:31 66.11307 57.79080 33637 ft 454 kts 236°
2026-04-25 16:32 66.07956 57.65857 33603 ft 455 kts 236°
2026-04-25 16:32 66.04589 57.52645 33597 ft 455 kts 236°
2026-04-25 16:33 66.01214 57.39473 33589 ft 455 kts 236°
2026-04-25 16:33 65.97782 57.26439 33588 ft 454 kts 234°
2026-04-25 16:34 65.94282 57.13565 33590 ft 453 kts 234°
2026-04-25 16:34 65.90789 57.00747 33588 ft 452 kts 234°
2026-04-25 16:35 65.87300 56.87973 33578 ft 452 kts 234°
2026-04-25 16:35 65.83809 56.75233 33581 ft 451 kts 234°
2026-04-25 16:36 65.80283 56.62605 33582 ft 450 kts 230°
2026-04-25 16:36 65.76210 56.51107 33575 ft 448 kts 226°
2026-04-25 16:37 65.72003 56.39909 33570 ft 448 kts 226°
2026-04-25 16:37 65.67812 56.28711 33574 ft 448 kts 226°
2026-04-25 16:38 65.63641 56.17499 33567 ft 448 kts 226°
2026-04-25 16:38 65.59489 56.06353 33553 ft 449 kts 226°
2026-04-25 16:39 65.55299 55.95163 33556 ft 449 kts 226°
2026-04-25 16:39 65.51103 55.84001 33547 ft 449 kts 226°
2026-04-25 16:40 65.46896 55.72874 33542 ft 449 kts 226°
2026-04-25 16:40 65.42681 55.61792 33542 ft 449 kts 226°
2026-04-25 16:41 65.38460 55.50743 33556 ft 449 kts 226°
2026-04-25 16:41 65.32110 55.34226 33553 ft 450 kts 226°
2026-04-25 16:42 65.27859 55.23243 33552 ft 450 kts 225°
2026-04-25 16:42 65.23594 55.12279 33545 ft 451 kts 225°
2026-04-25 16:43 65.19323 55.01352 33529 ft 451 kts 225°
2026-04-25 16:43 65.15038 54.90452 33543 ft 451 kts 225°
2026-04-25 16:44 65.10745 54.79585 33533 ft 451 kts 225°
2026-04-25 16:44 65.06446 54.68754 33531 ft 451 kts 225°
2026-04-25 16:45 65.02136 54.57952 33534 ft 451 kts 225°
2026-04-25 16:45 64.97815 54.47183 33530 ft 451 kts 225°
2026-04-25 16:46 64.93487 54.36442 33522 ft 451 kts 225°
2026-04-25 16:46 64.90618 54.29349 33533 ft 452 kts 225°
2026-04-25 16:47 64.84807 54.15057 33523 ft 452 kts 225°
2026-04-25 16:47 64.80484 54.04499 33526 ft 451 kts 225°
2026-04-25 16:48 64.76131 53.93916 33520 ft 450 kts 225°
2026-04-25 16:48 64.71780 53.83386 33514 ft 450 kts 225°
2026-04-25 16:49 64.67419 53.72882 33526 ft 450 kts 224°
2026-04-25 16:49 64.63052 53.62415 33515 ft 450 kts 224°
2026-04-25 16:50 64.58684 53.51994 33516 ft 450 kts 224°
2026-04-25 16:50 64.54306 53.41594 33515 ft 450 kts 224°
2026-04-25 16:51 64.49919 53.31241 33515 ft 450 kts 224°
2026-04-25 16:51 64.46980 53.24329 33512 ft 450 kts 224°
2026-04-25 16:52 64.41117 53.10605 33505 ft 450 kts 224°
2026-04-25 16:52 64.36702 53.00330 33508 ft 451 kts 224°
2026-04-25 16:53 64.30056 52.84951 33506 ft 451 kts 224°
2026-04-25 16:54 64.25616 52.74739 33505 ft 452 kts 224°
2026-04-25 16:54 64.21166 52.64551 33504 ft 451 kts 224°
2026-04-25 16:55 64.16710 52.54396 33510 ft 451 kts 224°
2026-04-25 16:55 64.12242 52.44270 33505 ft 452 kts 224°
2026-04-25 16:56 64.07770 52.34173 33496 ft 452 kts 224°
2026-04-25 16:56 64.03284 52.24090 33495 ft 452 kts 224°
2026-04-25 16:57 63.98791 52.14041 33500 ft 453 kts 224°
2026-04-25 16:57 63.94288 52.04014 33496 ft 453 kts 223°
2026-04-25 16:58 63.89774 51.94010 33496 ft 453 kts 223°
2026-04-25 16:58 63.85283 51.84104 33498 ft 453 kts 223°
2026-04-25 16:59 63.80753 51.74157 33496 ft 453 kts 223°
2026-04-25 16:59 63.76218 51.64244 33499 ft 453 kts 223°
2026-04-25 17:00 63.71676 51.54360 33492 ft 454 kts 223°
2026-04-25 17:00 63.67124 51.44501 33488 ft 454 kts 223°
2026-04-25 17:01 63.62560 51.34687 33486 ft 454 kts 223°
2026-04-25 17:01 63.57980 51.24944 33488 ft 453 kts 223°
2026-04-25 17:02 63.53394 51.15236 33488 ft 453 kts 223°
2026-04-25 17:02 63.48803 51.05554 33488 ft 453 kts 223°
2026-04-25 17:03 63.44982 50.97530 33484 ft 453 kts 223°
2026-04-25 17:03 63.40380 50.87895 33488 ft 453 kts 223°
2026-04-25 17:04 63.35772 50.78297 33491 ft 453 kts 223°
2026-04-25 17:04 63.31160 50.68734 33483 ft 453 kts 223°
2026-04-25 17:05 63.26540 50.59192 33490 ft 453 kts 223°
2026-04-25 17:05 63.19590 50.44925 33489 ft 454 kts 222°
2026-04-25 17:06 63.14945 50.35448 33488 ft 454 kts 222°
2026-04-25 17:06 63.10296 50.26001 33488 ft 454 kts 222°
2026-04-25 17:07 63.05641 50.16592 33486 ft 454 kts 222°
2026-04-25 17:07 63.00975 50.07201 33485 ft 454 kts 222°
2026-04-25 17:08 62.96302 49.97834 33489 ft 455 kts 222°
2026-04-25 17:08 62.91619 49.88495 33485 ft 455 kts 222°
2026-04-25 17:09 62.86931 49.79183 33488 ft 455 kts 222°
2026-04-25 17:09 62.82236 49.69900 33483 ft 455 kts 222°
2026-04-25 17:10 62.77528 49.60634 33479 ft 455 kts 222°
2026-04-25 17:10 62.72815 49.51402 33475 ft 455 kts 222°
2026-04-25 17:11 62.68095 49.42191 33479 ft 455 kts 222°
2026-04-25 17:11 62.63370 49.33014 33478 ft 455 kts 222°
2026-04-25 17:12 62.58672 49.23927 33477 ft 455 kts 222°
2026-04-25 17:12 62.53937 49.14820 33477 ft 455 kts 222°
2026-04-25 17:13 62.49970 49.07215 33479 ft 454 kts 222°
2026-04-25 17:13 62.44465 48.96704 33478 ft 455 kts 222°
2026-04-25 17:14 62.39714 48.87681 33481 ft 455 kts 222°
2026-04-25 17:14 62.34955 48.78671 33478 ft 455 kts 222°
2026-04-25 17:15 62.30182 48.69704 33476 ft 456 kts 220°
2026-04-25 17:15 62.25148 48.61419 33485 ft 456 kts 217°
2026-04-25 17:16 62.20030 48.53366 33490 ft 457 kts 217°
2026-04-25 17:16 62.14912 48.45298 33488 ft 457 kts 218°
2026-04-25 17:17 62.09797 48.37203 33488 ft 458 kts 218°
2026-04-25 17:17 62.04679 48.29120 33486 ft 458 kts 218°
2026-04-25 17:18 61.99547 48.21062 33486 ft 458 kts 218°
2026-04-25 17:18 61.94417 48.13023 33487 ft 458 kts 218°
2026-04-25 17:19 61.89313 48.05064 33488 ft 458 kts 218°
2026-04-25 17:19 61.84172 47.97082 33488 ft 458 kts 218°
2026-04-25 17:20 61.79024 47.89125 33487 ft 458 kts 218°
2026-04-25 17:20 61.73870 47.81195 33488 ft 459 kts 217°
2026-04-25 17:21 61.68712 47.73284 33495 ft 458 kts 218°
2026-04-25 17:21 61.63557 47.65413 33494 ft 458 kts 218°
2026-04-25 17:22 61.59268 47.58892 33499 ft 458 kts 217°
2026-04-25 17:22 61.53305 47.49534 33488 ft 457 kts 224°
2026-04-25 17:23 61.49219 47.39454 33503 ft 454 kts 235°
2026-04-25 17:23 61.45419 47.28903 33505 ft 454 kts 234°
2026-04-25 17:24 61.41538 47.18470 33509 ft 455 kts 234°
2026-04-25 17:24 61.37637 47.08034 33513 ft 456 kts 234°
2026-04-25 17:25 61.33728 46.97605 33513 ft 457 kts 234°
2026-04-25 17:25 61.29810 46.87189 33517 ft 457 kts 234°
2026-04-25 17:26 61.25882 46.76793 33515 ft 457 kts 234°
2026-04-25 17:26 61.22118 46.66193 33530 ft 455 kts 239°
2026-04-25 17:27 61.18714 46.55211 33515 ft 455 kts 239°
2026-04-25 17:27 61.16437 46.47822 33530 ft 455 kts 239°
2026-04-25 17:28 61.11868 46.33189 33530 ft 454 kts 239°
2026-04-25 17:28 61.08414 46.22258 33531 ft 454 kts 239°
2026-04-25 17:29 61.04955 46.11372 33535 ft 453 kts 239°
2026-04-25 17:29 61.01490 46.00517 33534 ft 453 kts 239°
2026-04-25 17:30 60.98022 45.89700 33543 ft 452 kts 239°
2026-04-25 17:30 60.94548 45.78918 33546 ft 452 kts 239°
2026-04-25 17:31 60.91072 45.68175 33540 ft 451 kts 239°
2026-04-25 17:31 60.87589 45.57462 33549 ft 451 kts 239°
2026-04-25 17:32 60.84101 45.46786 33554 ft 450 kts 239°
2026-04-25 17:32 60.80608 45.36140 33554 ft 450 kts 239°
2026-04-25 17:33 60.77132 45.25594 33553 ft 450 kts 239°
2026-04-25 17:33 60.73627 45.14997 33555 ft 450 kts 239°
2026-04-25 17:34 60.69947 45.04649 33567 ft 451 kts 235°
2026-04-25 17:34 60.65989 44.94693 33563 ft 452 kts 234°
2026-04-25 17:35 60.62015 44.84783 33564 ft 451 kts 234°
2026-04-25 17:35 60.58059 44.74873 33569 ft 450 kts 234°
2026-04-25 17:36 60.54115 44.64979 33572 ft 450 kts 234°
2026-04-25 17:36 60.50176 44.55132 33572 ft 449 kts 234°
2026-04-25 17:37 60.46235 44.45326 33570 ft 448 kts 234°
2026-04-25 17:37 60.42292 44.35562 33581 ft 447 kts 234°
2026-04-25 17:38 60.39681 44.29117 33581 ft 447 kts 234°
2026-04-25 17:38 60.34406 44.16149 33582 ft 446 kts 234°
2026-04-25 17:39 60.30462 44.06500 33578 ft 445 kts 234°
2026-04-25 17:39 60.26514 43.96899 33587 ft 444 kts 234°
2026-04-25 17:40 60.22565 43.87341 33590 ft 444 kts 234°
2026-04-25 17:40 60.18615 43.77811 33591 ft 444 kts 234°
2026-04-25 17:41 60.14661 43.68305 33597 ft 443 kts 234°
2026-04-25 17:41 60.10727 43.58892 33599 ft 443 kts 234°
2026-04-25 17:42 60.06763 43.49443 33609 ft 443 kts 234°
2026-04-25 17:42 60.02791 43.40012 33609 ft 443 kts 234°
2026-04-25 17:43 59.98807 43.30590 33613 ft 444 kts 234°
2026-04-25 17:43 59.94810 43.21172 33613 ft 444 kts 233°
2026-04-25 17:44 59.90808 43.11787 33623 ft 445 kts 233°
2026-04-25 17:44 59.86791 43.02403 33623 ft 445 kts 233°
2026-04-25 17:45 59.84103 42.96138 33616 ft 445 kts 233°
2026-04-25 17:45 59.78742 42.83695 33623 ft 445 kts 233°
2026-04-25 17:46 59.74717 42.74391 33626 ft 444 kts 233°
2026-04-25 17:46 59.70692 42.65122 33624 ft 443 kts 233°
2026-04-25 17:47 59.66663 42.55904 33633 ft 443 kts 233°
2026-04-25 17:47 59.62628 42.46715 33627 ft 443 kts 232°
2026-04-25 17:48 59.56591 42.33031 33638 ft 442 kts 232°
2026-04-25 17:49 59.52542 42.23890 33636 ft 443 kts 232°
2026-04-25 17:49 59.48486 42.14771 33639 ft 442 kts 232°
2026-04-25 17:50 59.44422 42.05673 33634 ft 443 kts 232°
2026-04-25 17:50 59.40353 41.96601 33637 ft 443 kts 232°
2026-04-25 17:51 59.36280 41.87556 33649 ft 442 kts 232°
2026-04-25 17:51 59.32200 41.78530 33650 ft 442 kts 232°
2026-04-25 17:52 59.28113 41.69524 33637 ft 442 kts 232°
2026-04-25 17:52 59.24714 41.62061 33626 ft 442 kts 232°
2026-04-25 17:53 59.20621 41.53102 33628 ft 442 kts 232°
2026-04-25 17:53 59.16526 41.44181 33632 ft 441 kts 232°
2026-04-25 17:54 59.12425 41.35280 33627 ft 441 kts 232°
2026-04-25 17:54 59.08330 41.26421 33628 ft 440 kts 232°
2026-04-25 17:55 59.04232 41.17587 33629 ft 440 kts 232°
2026-04-25 17:55 59.00131 41.08778 33630 ft 440 kts 232°
2026-04-25 17:56 58.96024 40.99999 33628 ft 440 kts 232°
2026-04-25 17:56 58.91909 40.91237 33625 ft 439 kts 231°
2026-04-25 17:57 58.87792 40.82500 33629 ft 440 kts 231°
2026-04-25 17:57 58.83667 40.73778 33627 ft 440 kts 231°
2026-04-25 17:58 58.79540 40.65079 33630 ft 439 kts 231°
2026-04-25 17:58 58.75407 40.56410 33638 ft 439 kts 231°
2026-04-25 17:59 58.71262 40.47763 33638 ft 439 kts 231°
2026-04-25 17:59 58.67109 40.39140 33634 ft 439 kts 231°
2026-04-25 18:00 58.62954 40.30530 33639 ft 439 kts 231°
2026-04-25 18:00 58.58799 40.21951 33638 ft 439 kts 231°
2026-04-25 18:01 58.54640 40.13394 33636 ft 439 kts 231°
2026-04-25 18:01 58.50490 40.04895 33640 ft 435 kts 230°
2026-04-25 18:02 58.46368 39.96479 33628 ft 432 kts 230°
2026-04-25 18:02 58.42298 39.88199 33631 ft 429 kts 230°
2026-04-25 18:03 58.38221 39.79929 33634 ft 427 kts 230°
2026-04-25 18:03 58.34152 39.71718 33635 ft 425 kts 229°
2026-04-25 18:04 58.29800 39.64057 33640 ft 427 kts 225°
2026-04-25 18:04 58.25333 39.56592 33649 ft 428 kts 225°
2026-04-25 18:05 58.20858 39.49110 33647 ft 430 kts 225°
2026-04-25 18:05 58.16376 39.41589 33650 ft 431 kts 225°
2026-04-25 18:06 58.11873 39.34036 33646 ft 433 kts 225°
2026-04-25 18:06 58.07352 39.26479 33644 ft 434 kts 225°
2026-04-25 18:07 58.02812 39.18928 33649 ft 435 kts 225°
2026-04-25 18:07 57.98266 39.11387 33646 ft 436 kts 225°
2026-04-25 18:08 57.93710 39.03854 33649 ft 436 kts 224°
2026-04-25 18:08 57.89156 38.96353 33644 ft 435 kts 224°
2026-04-25 18:09 57.84605 38.88882 33644 ft 435 kts 224°
2026-04-25 18:09 57.80050 38.81431 33645 ft 434 kts 224°
2026-04-25 18:10 57.75496 38.74004 33650 ft 434 kts 224°
2026-04-25 18:10 57.70965 38.66644 33646 ft 434 kts 224°
2026-04-25 18:11 57.66401 38.59250 33637 ft 434 kts 224°
2026-04-25 18:11 57.61833 38.51878 33635 ft 434 kts 224°
2026-04-25 18:12 57.57257 38.44526 33637 ft 434 kts 224°
2026-04-25 18:12 57.52676 38.37188 33638 ft 434 kts 224°
2026-04-25 18:13 57.48089 38.29865 33638 ft 434 kts 224°
2026-04-25 18:13 57.43505 38.22566 33638 ft 434 kts 224°
2026-04-25 18:14 57.38873 38.15209 32807 ft 443 kts 224°
2026-04-25 18:14 57.36546 38.11531 32112 ft 439 kts 224°
2026-04-25 18:14 57.34215 38.07849 31238 ft 439 kts 224°
2026-04-25 18:14 57.31905 38.04210 30604 ft 432 kts 224°
2026-04-25 18:15 57.29597 38.00578 29454 ft 438 kts 224°
2026-04-25 18:15 57.27288 37.96950 28673 ft 433 kts 224°
2026-04-25 18:15 57.24985 37.93335 27605 ft 436 kts 224°
2026-04-25 18:15 57.22670 37.89704 26612 ft 437 kts 224°
2026-04-25 18:16 57.20365 37.86100 26374 ft 432 kts 223°
2026-04-25 18:16 57.18098 37.82561 26155 ft 422 kts 224°
2026-04-25 18:16 57.13773 37.75836 25824 ft 392 kts 224°
2026-04-25 18:17 57.11617 37.72898 25654 ft 384 kts 212°
2026-04-25 18:17 57.09149 37.71194 25611 ft 377 kts 197°
2026-04-25 18:17 57.06575 37.70636 25613 ft 368 kts 189°
2026-04-25 18:17 57.04023 37.70434 25612 ft 369 kts 188°
2026-04-25 18:18 57.01415 37.70261 25628 ft 381 kts 188°
2026-04-25 18:18 56.98739 37.70066 25633 ft 388 kts 188°
2026-04-25 18:18 56.96032 37.69853 25618 ft 389 kts 188°
2026-04-25 18:18 56.93334 37.69623 25610 ft 387 kts 188°
2026-04-25 18:19 56.90650 37.69383 25609 ft 385 kts 188°
2026-04-25 18:19 56.87977 37.69141 25527 ft 386 kts 188°
2026-04-25 18:19 56.85286 37.68895 25250 ft 387 kts 188°
2026-04-25 18:19 56.82641 37.68659 25004 ft 384 kts 188°
2026-04-25 18:20 56.79986 37.68426 24763 ft 380 kts 188°
2026-04-25 18:20 56.77352 37.68193 24520 ft 378 kts 188°
2026-04-25 18:20 56.74726 37.67959 24280 ft 378 kts 188°
2026-04-25 18:20 56.72104 37.67725 24037 ft 377 kts 188°
2026-04-25 18:21 56.69482 37.67476 23795 ft 376 kts 189°
2026-04-25 18:21 56.66872 37.67182 23559 ft 376 kts 189°
2026-04-25 18:21 56.64266 37.66876 23319 ft 375 kts 189°
2026-04-25 18:21 56.61659 37.66575 23080 ft 375 kts 189°
2026-04-25 18:22 56.59060 37.66279 22848 ft 373 kts 189°
2026-04-25 18:22 56.58185 37.66156 22769 ft 373 kts 190°
2026-04-25 18:22 56.53891 37.65726 22363 ft 371 kts 188°
2026-04-25 18:22 56.51308 37.65500 22135 ft 374 kts 188°
2026-04-25 18:23 56.48708 37.65284 21902 ft 372 kts 187°
2026-04-25 18:23 56.46149 37.65065 21667 ft 366 kts 188°
2026-04-25 18:23 56.43600 37.64864 21421 ft 366 kts 188°
2026-04-25 18:23 56.41068 37.64604 21204 ft 363 kts 188°
2026-04-25 18:24 56.38565 37.64347 20964 ft 358 kts 188°
2026-04-25 18:24 56.36082 37.64118 20743 ft 356 kts 188°
2026-04-25 18:24 56.33617 37.63891 20515 ft 354 kts 188°
2026-04-25 18:24 56.31146 37.63661 20302 ft 357 kts 188°
2026-04-25 18:25 56.28650 37.63417 20073 ft 360 kts 188°
2026-04-25 18:25 56.26149 37.63200 19831 ft 360 kts 188°
2026-04-25 18:25 56.23658 37.62977 19618 ft 358 kts 188°
2026-04-25 18:25 56.21176 37.62763 19373 ft 356 kts 188°
2026-04-25 18:26 56.18710 37.62545 19148 ft 354 kts 188°
2026-04-25 18:26 56.16258 37.62322 18927 ft 352 kts 188°
2026-04-25 18:26 56.13815 37.62117 18688 ft 352 kts 185°
2026-04-25 18:26 56.11383 37.62856 18434 ft 362 kts 163°
2026-04-25 18:27 56.09078 37.64713 18227 ft 364 kts 159°
2026-04-25 18:27 56.06783 37.66626 17962 ft 364 kts 160°
2026-04-25 18:27 56.04485 37.68498 17716 ft 363 kts 160°
2026-04-25 18:27 56.02184 37.70345 17464 ft 362 kts 160°
2026-04-25 18:28 55.99883 37.72179 17209 ft 361 kts 160°
2026-04-25 18:28 55.97591 37.74002 16958 ft 360 kts 160°
2026-04-25 18:28 55.95306 37.75816 16725 ft 358 kts 160°
2026-04-25 18:29 55.91086 37.80360 16630 ft 358 kts 147°
2026-04-25 18:29 55.89080 37.83031 16612 ft 350 kts 147°
2026-04-25 18:30 55.82766 37.86648 16284 ft 315 kts 184°
2026-04-25 18:30 55.80572 37.86679 16067 ft 315 kts 185°
2026-04-25 18:30 55.78383 37.86674 15865 ft 314 kts 185°
2026-04-25 18:30 55.76199 37.86670 15655 ft 313 kts 185°
2026-04-25 18:31 55.74027 37.86688 15451 ft 311 kts 185°
2026-04-25 18:31 55.71864 37.86703 15267 ft 312 kts 184°
2026-04-25 18:31 55.69702 37.86740 15062 ft 310 kts 184°
2026-04-25 18:31 55.67551 37.86769 14850 ft 309 kts 184°
2026-04-25 18:32 55.65403 37.86800 14652 ft 308 kts 184°
2026-04-25 18:32 55.63257 37.86843 14439 ft 308 kts 184°
2026-04-25 18:32 55.61114 37.86897 14226 ft 308 kts 184°
2026-04-25 18:32 55.58968 37.86953 14010 ft 308 kts 184°
2026-04-25 18:33 55.56827 37.87007 13789 ft 307 kts 183°
2026-04-25 18:33 55.54713 37.87698 13530 ft 317 kts 160°
2026-04-25 18:33 55.52831 37.89781 13266 ft 321 kts 146°
2026-04-25 18:33 55.51062 37.92174 12949 ft 320 kts 146°
2026-04-25 18:34 55.49304 37.94552 12634 ft 317 kts 146°
2026-04-25 18:34 55.47552 37.96872 12332 ft 314 kts 147°
2026-04-25 18:34 55.45809 37.99137 12051 ft 309 kts 147°
2026-04-25 18:34 55.44085 38.01370 11744 ft 306 kts 147°
2026-04-25 18:35 55.42373 38.03582 11444 ft 304 kts 147°
2026-04-25 18:35 55.40675 38.05779 11152 ft 301 kts 147°
2026-04-25 18:35 55.38990 38.07945 10870 ft 299 kts 147°
2026-04-25 18:35 55.37335 38.10116 10659 ft 291 kts 146°
2026-04-25 18:36 55.35772 38.12268 10369 ft 283 kts 145°
2026-04-25 18:36 55.34215 38.14412 9854 ft 284 kts 146°
2026-04-25 18:36 55.32662 38.16543 9361 ft 283 kts 146°
2026-04-25 18:36 55.31181 38.18819 8848 ft 286 kts 130°
2026-04-25 18:37 55.30462 38.22069 8340 ft 293 kts 94°
2026-04-25 18:37 55.30900 38.25516 7850 ft 293 kts 58°
2026-04-25 18:37 55.32330 38.27950 7351 ft 286 kts 22°
2026-04-25 18:37 55.34225 38.28537 6872 ft 275 kts 346°
2026-04-25 18:38 55.35866 38.27145 6488 ft 257 kts 309°
2026-04-25 18:38 55.36670 38.24496 6126 ft 242 kts 281°
2026-04-25 18:38 55.37035 38.21638 5759 ft 238 kts 278°
2026-04-25 18:38 55.37356 38.18797 5374 ft 236 kts 278°
2026-04-25 18:39 55.37667 38.15981 4997 ft 233 kts 278°
2026-04-25 18:39 55.37910 38.14160 4808 ft 230 kts 284°
2026-04-25 18:39 55.38554 38.11616 4515 ft 227 kts 300°
2026-04-25 18:39 55.39524 38.09443 4245 ft 226 kts 311°
2026-04-25 18:40 55.40681 38.07563 4100 ft 227 kts 318°
2026-04-25 18:40 55.41923 38.05848 3972 ft 227 kts 321°
2026-04-25 18:40 55.43195 38.04221 3872 ft 225 kts 323°
2026-04-25 18:40 55.44478 38.02629 3782 ft 227 kts 323°
2026-04-25 18:41 55.45782 38.01025 3685 ft 231 kts 324°
2026-04-25 18:41 55.47112 37.99407 3589 ft 233 kts 324°
2026-04-25 18:41 55.48447 37.97789 3483 ft 232 kts 324°
2026-04-25 18:41 55.49777 37.96179 3383 ft 232 kts 324°
2026-04-25 18:42 55.51107 37.94574 3281 ft 231 kts 325°
2026-04-25 18:42 55.51985 37.93517 3212 ft 231 kts 324°
2026-04-25 18:42 55.53764 37.91352 3063 ft 234 kts 324°
2026-04-25 18:42 55.55096 37.89711 3007 ft 232 kts 324°
2026-04-25 18:43 55.56409 37.88095 2997 ft 226 kts 324°
2026-04-25 18:43 55.57668 37.86547 3001 ft 215 kts 324°
2026-04-25 18:43 55.58881 37.85049 3013 ft 212 kts 323°
2026-04-25 18:43 55.59798 37.83135 2973 ft 198 kts 285°
2026-04-25 18:44 55.59856 37.80837 2983 ft 184 kts 253°
2026-04-25 18:44 55.59361 37.78825 2990 ft 177 kts 234°
2026-04-25 18:44 55.58683 37.77003 2995 ft 178 kts 232°
2026-04-25 18:44 55.57986 37.75192 2990 ft 178 kts 233°
2026-04-25 18:45 55.57288 37.73379 2981 ft 179 kts 233°
2026-04-25 18:45 55.56467 37.71792 2956 ft 172 kts 201°
2026-04-25 18:45 55.55341 37.71647 2987 ft 164 kts 161°
2026-04-25 18:45 55.54343 37.72555 3000 ft 159 kts 149°
2026-04-25 18:46 55.53430 37.73588 3032 ft 152 kts 148°
2026-04-25 18:46 55.52575 37.74598 2956 ft 145 kts 148°
2026-04-25 18:46 55.51737 37.75538 2801 ft 146 kts 148°
2026-04-25 18:46 55.50900 37.76545 2641 ft 145 kts 147°
2026-04-25 18:47 55.50073 37.77544 2434 ft 144 kts 147°
2026-04-25 18:47 55.49246 37.78560 2166 ft 146 kts 146°
2026-04-25 18:47 55.48418 37.79591 1975 ft 145 kts 146°
2026-04-25 18:47 55.47591 37.80604 1760 ft 145 kts 146°
2026-04-25 18:48 55.46772 37.81579 1638 ft 141 kts 147°
2026-04-25 18:48 55.45936 37.82572 1440 ft 146 kts 147°
2026-04-25 18:48 55.45107 37.83588 1254 ft 146 kts 145°
2026-04-25 18:48 55.44297 37.84619 1084 ft 140 kts 147°
2026-04-25 18:49 55.43472 37.85560 917 ft 144 kts 146°
2026-04-25 18:49 55.42646 37.86578 750 ft 146 kts 146°
2026-04-25 18:49 55.41813 37.87572 597 ft 138 kts 147°
2026-04-25 18:49 55.41150 37.88371 579 ft 85 kts 147°
2026-04-25 18:50 55.40850 37.88747 575 ft 33 kts 133°
2026-04-25 18:50 55.40739 37.89039 574 ft 23 kts 116°
2026-04-25 18:50 55.40731 37.89069 572 ft 1 kts 116°
2026-04-25 18:50 55.40716 37.89135 572 ft 11 kts 101°
2026-04-25 18:51 55.40744 37.89266 570 ft 12 kts 56°
2026-04-25 18:51 55.40774 37.89345 570 ft 12 kts 56°
2026-04-25 18:51 55.40836 37.89497 575 ft 11 kts 47°
2026-04-25 18:51 55.40888 37.89596 569 ft 11 kts 56°
2026-04-25 18:52 55.40930 37.89705 571 ft 11 kts 56°
2026-04-25 18:52 55.40971 37.89811 568 ft 10 kts 55°
2026-04-25 18:52 55.41011 37.89913 568 ft 10 kts 56°
2026-04-25 18:52 55.41050 37.90014 567 ft 10 kts 56°
2026-04-25 18:53 55.41089 37.90114 567 ft 10 kts 56°
2026-04-25 18:53 55.41124 37.90185 573 ft 5 kts 14°
2026-04-25 18:53 55.41161 37.90177 572 ft 5 kts 356°
2026-04-25 18:53 55.41194 37.90201 572 ft 5 kts 43°
2026-04-25 18:54 55.41253 37.90215 570 ft 5 kts 295°
2026-04-25 18:54 55.41244 37.90157 571 ft 5 kts 238°
2026-04-25 18:54 55.41235 37.90135 571 ft 1 kts 236°
2026-04-25 18:55 55.41235 37.90134 573 ft 0 kts 236°